Regional Weather Roundup
Issued by NWS

Home | Current Version | Previous Version | Graphics & Text | Print | Product List | Glossary On
Versions: 1 2 3 4 5 6 7 8 9 10 11 12 13 14 15 16 17 18 19 20 21 22 23 24 25 26 27 28 29 30 31 32 33 34 35 36 37 38 39 40 41 42 43 44 45 46 47 48 49 50
000
ASUS45 KABQ 051910
RWRNM
NEW MEXICO REGIONAL WEATHER ROUNDUP
NATIONAL WEATHER SERVICE ALBUQUERQUE NM
100 PM MDT SUN JUL 05 2015

NOTE: "FAIR" MEANS FEW OR NO CLOUDS BELOW 12,000 FEET AGL WITH NO
       SIGNIFICANT WEATHER OR OBSTRUCTIONS TO VISION.

      THIS PRODUCT IS RELEASED AS TWO VERSIONS.  ONE VERSION NEAR
      THE TOP OF THE HOUR CONTAINING PRELIMINARY DATA FROM ALBUQUERQUE
      AND OTHER STATIONS.  A FINAL VERSION WITH ADDITIONAL DATA IS
      ISSUED ABOUT 10 MINUTES AFTER THE HOUR.

NMZ501-503-504-510>518-052000-
NORTHWEST PLATEAU/NORTHCENTRAL MOUNTAINS

CITY           SKY/WX    TMP DP  RH WIND       PRES   REMARKS
FARMINGTON     SUNNY     80  53  39 VRB7      30.14F
LOS ALAMOS     CLOUDY    75  52  43 NW3       30.23F
SANTA FE       MOSUNNY   82  50  32 W9G17     30.17F
TAOS           PTSUNNY   79  45  29 SW15G21   30.22F
ANGEL FIRE     FAIR      69  51  52 W12G17    30.32S

$$
NMZ402-403-502-505>509-052000-
WESTCENTRAL MOUNTAINS/SOUTHWEST MOUNTAINS

CITY           SKY/WX    TMP DP  RH WIND       PRES   REMARKS
GALLUP         PTSUNNY   78  50  37 W8G22     30.23F
GRANTS         MOSUNNY   79  49  34 NW12      30.23S
SILVER CITY      N/A     73  63  68 NW10      30.21F

$$
NMZ407-409-411-412-052000-
SOUTHERN DESERTS

CITY           SKY/WX    TMP DP  RH WIND       PRES   REMARKS
LORDSBURG      CLOUDY    77  61  57 W14G21    30.14S
DEMING         MOSUNNY   81  64  56 W15G21    30.11F
LAS CRUCES     MOSUNNY   84  60  43 W6G16     30.11F
HOLLOMAN AFB   SUNNY     89  57  33 VRB7      30.02F
ALAMOGORDO     SUNNY     90  57  33 S9        30.05F
T OR C         PTSUNNY   84  56  38 SW9       30.10F

$$
NMZ519>523-052000-
CENTRAL VALLEYS/CENTRAL HIGHLANDS

CITY           SKY/WX    TMP DP  RH WIND       PRES   REMARKS
ALBUQUERQUE    MOSUNNY   84  53  34 VRB6      30.12F
DOUBLE EAGLE   PTSUNNY   84  55  37 SW6       30.16F
MORIARTY ARPT    N/A     84  46  26 SW5G20    30.17F
CLINES CORNERS MOSUNNY   81  53  37 W10       30.22F
BELEN          FAIR      88  48  25 W8        30.10F
SOCORRO        PTSUNNY   85  52  31 S5        30.09F

$$
NMZ524>526-539-540-052000-
SOUTHCENTRAL MOUNTAINS

CITY           SKY/WX    TMP DP  RH WIND       PRES   REMARKS
RUIDOSO        MOSUNNY   73  55  53 E10       30.25F

$$
NMZ527>531-052000-
NORTHEAST HIGHLANDS/NORTHEAST PLAINS

CITY           SKY/WX    TMP DP  RH WIND       PRES   REMARKS
LAS VEGAS      MOSUNNY   80  54  40 SW17G24   30.18F
RATON          MOSUNNY   84  53  34 S13G20    30.10F
CLAYTON        PTSUNNY   91  54  28 S26G35    30.04F

$$
NMZ532>537-052000-
EASTCENTRAL PLAINS

CITY           SKY/WX    TMP DP  RH WIND       PRES   REMARKS
TUCUMCARI      MOSUNNY   93  56  28 SW18G25   29.99F
CANNON AFB     PTSUNNY   87  60  40 S12       30.05F
CLOVIS AIRPORT MOSUNNY   86  61  42 S14         N/A

$$
NMZ028-029-538-052000-
SOUTHEAST PLAINS

CITY           SKY/WX    TMP DP  RH WIND       PRES   REMARKS
ROSWELL        SUNNY     91  60  35 VRB3G18   29.99F
ARTESIA        SUNNY     91  63  38 S14       30.00F
CARLSBAD       MOSUNNY   93  62  35 S8        29.98F
HOBBS          MOSUNNY   88  57  35 VRB6      30.04F


$$



USA.gov is the U.S. government's official web portal to all federal, state and local government web resources and services.